iso_date,epoch_date,Year,Hour,Min,DOY,POS_DOY,Lat,Lon,BP,Ts,Ta,has_bp,has_ts,has_ta,BuoyID,Buoy_Type,Buoy_Owner,Logistics,Hemisphere
2017-09-14T16:59:31Z,1505408371,2017,17,0,257.708,257.708,85.9264,-148.9748,1017.6,-1.6,-10.8,yes,yes,yes,300234063061350,AXIB,EC,ICE-PPR(RDAF-USIABP),North
2017-09-14T18:00:00Z,1505412000,2017,18,0,257.75,257.75,85.928,-148.9942,1017.6,-1.6,-10.6,yes,yes,yes,300234063061350,AXIB,EC,ICE-PPR(RDAF-USIABP),North
2017-09-14T19:00:28Z,1505415629,2017,19,0,257.792,257.792,85.9306,-149.022,1017.7,-1.6,-10.3,yes,yes,yes,300234063061350,AXIB,EC,ICE-PPR(RDAF-USIABP),North
2017-09-14T19:59:31Z,1505419171,2017,20,0,257.833,257.833,85.9338,-149.0502,1018.0,-1.6,-9.9,yes,yes,yes,300234063061350,AXIB,EC,ICE-PPR(RDAF-USIABP),North
2017-09-14T21:00:00Z,1505422800,2017,21,0,257.875,257.875,85.9376,-149.0764,1018.3,-1.6,-9.5,yes,yes,yes,300234063061350,AXIB,EC,ICE-PPR(RDAF-USIABP),North
2017-09-14T22:00:28Z,1505426429,2017,22,0,257.917,257.917,85.9416,-149.0992,1018.5,-1.6,-9.8,yes,yes,yes,300234063061350,AXIB,EC,ICE-PPR(RDAF-USIABP),North
2017-09-14T22:59:31Z,1505429971,2017,23,0,257.958,257.958,85.9456,-149.1176,1018.8,-1.6,-10.6,yes,yes,yes,300234063061350,AXIB,EC,ICE-PPR(RDAF-USIABP),North
2017-09-15T00:00:00Z,1505433600,2017,0,0,258.0,258.0,85.9488,-149.1302,1018.9,-1.6,-11.8,yes,yes,yes,300234063061350,AXIB,EC,ICE-PPR(RDAF-USIABP),North
2017-09-15T01:00:28Z,1505437229,2017,1,0,258.042,258.042,85.9514,-149.1414,1018.8,-1.6,-12.0,yes,yes,yes,300234063061350,AXIB,EC,ICE-PPR(RDAF-USIABP),North
2017-09-15T01:59:31Z,1505440771,2017,2,0,258.083,258.083,85.953,-149.1528,1018.9,-1.6,-12.0,yes,yes,yes,300234063061350,AXIB,EC,ICE-PPR(RDAF-USIABP),North
2017-09-15T03:00:00Z,1505444400,2017,3,0,258.125,258.125,85.9538,-149.1662,1018.8,-1.6,-12.3,yes,yes,yes,300234063061350,AXIB,EC,ICE-PPR(RDAF-USIABP),North
2017-09-15T04:00:28Z,1505448029,2017,4,0,258.167,258.167,85.9542,-149.183,1018.9,-1.6,-13.6,yes,yes,yes,300234063061350,AXIB,EC,ICE-PPR(RDAF-USIABP),North
2017-09-15T04:59:31Z,1505451571,2017,5,0,258.208,258.208,85.9542,-149.2076,1018.8,-1.6,-14.7,yes,yes,yes,300234063061350,AXIB,EC,ICE-PPR(RDAF-USIABP),North
2017-09-15T06:00:00Z,1505455200,2017,6,0,258.25,258.25,85.9542,-149.2404,1018.7,-1.6,-15.3,yes,yes,yes,300234063061350,AXIB,EC,ICE-PPR(RDAF-USIABP),North
2017-09-15T07:00:28Z,1505458829,2017,7,0,258.292,258.292,85.9548,-149.2744,1019.0,-1.6,-16.6,yes,yes,yes,300234063061350,AXIB,EC,ICE-PPR(RDAF-USIABP),North
2017-09-15T07:59:31Z,1505462371,2017,8,0,258.333,258.333,85.956,-149.3048,1018.9,-1.6,-17.5,yes,yes,yes,300234063061350,AXIB,EC,ICE-PPR(RDAF-USIABP),North
2017-09-15T09:00:00Z,1505466000,2017,9,0,258.375,258.375,85.9574,-149.326,1019.0,-1.6,-19.6,yes,yes,yes,300234063061350,AXIB,EC,ICE-PPR(RDAF-USIABP),North
2017-09-15T10:00:28Z,1505469629,2017,10,0,258.417,258.417,85.9592,-149.3378,1018.8,-1.6,-20.5,yes,yes,yes,300234063061350,AXIB,EC,ICE-PPR(RDAF-USIABP),North
2017-09-15T10:59:31Z,1505473171,2017,11,0,258.458,258.458,85.9604,-149.3376,1018.5,-1.6,-20.1,yes,yes,yes,300234063061350,AXIB,EC,ICE-PPR(RDAF-USIABP),North
2017-09-15T12:00:00Z,1505476800,2017,12,0,258.5,258.5,85.9608,-149.3218,1018.1,-1.6,-18.3,yes,yes,yes,300234063061350,AXIB,EC,ICE-PPR(RDAF-USIABP),North
2017-09-15T13:00:28Z,1505480429,2017,13,0,258.542,258.542,85.96,-149.2972,1017.6,-1.6,-16.5,yes,yes,yes,300234063061350,AXIB,EC,ICE-PPR(RDAF-USIABP),North
2017-09-15T13:59:31Z,1505483971,2017,14,0,258.583,258.583,85.9578,-149.2668,1017.1,-1.6,-15.8,yes,yes,yes,300234063061350,AXIB,EC,ICE-PPR(RDAF-USIABP),North
2017-09-15T15:00:00Z,1505487600,2017,15,0,258.625,258.625,85.9548,-149.2364,1016.4,-1.6,-14.8,yes,yes,yes,300234063061350,AXIB,EC,ICE-PPR(RDAF-USIABP),North
2017-09-15T16:00:28Z,1505491229,2017,16,0,258.667,258.667,85.9512,-149.2064,1015.7,-1.6,-13.9,yes,yes,yes,300234063061350,AXIB,EC,ICE-PPR(RDAF-USIABP),North
2017-09-15T16:59:31Z,1505494771,2017,17,0,258.708,258.708,85.9468,-149.1782,1015.0,-1.6,-12.8,yes,yes,yes,300234063061350,AXIB,EC,ICE-PPR(RDAF-USIABP),North
2017-09-15T18:00:00Z,1505498400,2017,18,0,258.75,258.75,85.9422,-149.1534,1014.2,-1.6,-12.1,yes,yes,yes,300234063061350,AXIB,EC,ICE-PPR(RDAF-USIABP),North
2017-09-15T19:00:28Z,1505502029,2017,19,0,258.792,258.792,85.9382,-149.1288,1013.3,-1.6,-11.0,yes,yes,yes,300234063061350,AXIB,EC,ICE-PPR(RDAF-USIABP),North
2017-09-15T19:59:31Z,1505505571,2017,20,0,258.833,258.833,85.9344,-149.0972,1012.6,-1.6,-10.4,yes,yes,yes,300234063061350,AXIB,EC,ICE-PPR(RDAF-USIABP),North
2017-09-15T21:00:00Z,1505509200,2017,21,0,258.875,258.875,85.9306,-149.0556,1011.7,-1.6,-10.1,yes,yes,yes,300234063061350,AXIB,EC,ICE-PPR(RDAF-USIABP),North
2017-09-15T22:00:28Z,1505512829,2017,22,0,258.917,258.917,85.9268,-149.001,1011.0,-1.6,-9.7,yes,yes,yes,300234063061350,AXIB,EC,ICE-PPR(RDAF-USIABP),North
2017-09-15T22:59:31Z,1505516371,2017,23,0,258.958,258.958,85.9226,-148.9366,1010.0,-1.6,-9.2,yes,yes,yes,300234063061350,AXIB,EC,ICE-PPR(RDAF-USIABP),North
2017-09-16T00:00:00Z,1505520000,2017,0,0,259.0,259.0,85.918,-148.861,1009.0,-1.6,-8.9,yes,yes,yes,300234063061350,AXIB,EC,ICE-PPR(RDAF-USIABP),North
2017-09-16T01:00:28Z,1505523629,2017,1,0,259.042,259.042,85.9122,-148.7784,1008.2,-1.6,-8.7,yes,yes,yes,300234063061350,AXIB,EC,ICE-PPR(RDAF-USIABP),North
2017-09-16T01:59:31Z,1505527171,2017,2,0,259.083,259.083,85.9054,-148.6942,1007.3,-1.6,-8.4,yes,yes,yes,300234063061350,AXIB,EC,ICE-PPR(RDAF-USIABP),North
2017-09-16T03:00:00Z,1505530800,2017,3,0,259.125,259.125,85.898,-148.617,1006.6,-1.6,-8.1,yes,yes,yes,300234063061350,AXIB,EC,ICE-PPR(RDAF-USIABP),North
2017-09-16T04:00:28Z,1505534429,2017,4,0,259.167,259.167,85.89,-148.5514,1005.9,-1.6,-7.7,yes,yes,yes,300234063061350,AXIB,EC,ICE-PPR(RDAF-USIABP),North
2017-09-16T04:59:31Z,1505537971,2017,5,0,259.208,259.208,85.8824,-148.5004,1005.2,-1.6,-7.5,yes,yes,yes,300234063061350,AXIB,EC,ICE-PPR(RDAF-USIABP),North
2017-09-16T06:00:00Z,1505541600,2017,6,0,259.25,259.25,85.875,-148.4654,1004.9,-1.6,-7.3,yes,yes,yes,300234063061350,AXIB,EC,ICE-PPR(RDAF-USIABP),North
2017-09-16T07:00:28Z,1505545229,2017,7,0,259.292,259.292,85.8688,-148.4424,1004.6,-1.6,-7.0,yes,yes,yes,300234063061350,AXIB,EC,ICE-PPR(RDAF-USIABP),North
2017-09-16T07:59:31Z,1505548771,2017,8,0,259.333,259.333,85.8634,-148.425,1004.4,-1.6,-6.7,yes,yes,yes,300234063061350,AXIB,EC,ICE-PPR(RDAF-USIABP),North
2017-09-16T09:00:00Z,1505552400,2017,9,0,259.375,259.375,85.859,-148.4076,1004.1,-1.6,-6.2,yes,yes,yes,300234063061350,AXIB,EC,ICE-PPR(RDAF-USIABP),North
2017-09-16T10:00:28Z,1505556029,2017,10,0,259.417,259.417,85.8552,-148.385,1004.0,-1.6,-5.4,yes,yes,yes,300234063061350,AXIB,EC,ICE-PPR(RDAF-USIABP),North
2017-09-16T10:59:31Z,1505559571,2017,11,0,259.458,259.458,85.8516,-148.3568,1003.7,-1.6,-4.7,yes,yes,yes,300234063061350,AXIB,EC,ICE-PPR(RDAF-USIABP),North
2017-09-16T12:00:00Z,1505563200,2017,12,0,259.5,259.5,85.8482,-148.3236,1003.7,-1.6,-3.9,yes,yes,yes,300234063061350,AXIB,EC,ICE-PPR(RDAF-USIABP),North
2017-09-16T13:00:28Z,1505566829,2017,13,0,259.542,259.542,85.8438,-148.2886,1003.5,-1.6,-3.0,yes,yes,yes,300234063061350,AXIB,EC,ICE-PPR(RDAF-USIABP),North
2017-09-16T13:59:31Z,1505570371,2017,14,0,259.583,259.583,85.8392,-148.2576,1003.3,-1.6,-2.8,yes,yes,yes,300234063061350,AXIB,EC,ICE-PPR(RDAF-USIABP),North
2017-09-16T15:00:00Z,1505574000,2017,15,0,259.625,259.625,85.8348,-148.2328,1003.2,-1.6,-2.5,yes,yes,yes,300234063061350,AXIB,EC,ICE-PPR(RDAF-USIABP),North
2017-09-16T16:00:28Z,1505577629,2017,16,0,259.667,259.667,85.8306,-148.2146,1003.0,-1.6,-2.3,yes,yes,yes,300234063061350,AXIB,EC,ICE-PPR(RDAF-USIABP),North
2017-09-16T16:59:31Z,1505581171,2017,17,0,259.708,259.708,85.8254,-148.2014,1002.7,-1.6,-2.7,yes,yes,yes,300234063061350,AXIB,EC,ICE-PPR(RDAF-USIABP),North
2017-09-16T18:00:00Z,1505584800,2017,18,0,259.75,259.75,85.82,-148.1926,1002.6,-1.6,-2.9,yes,yes,yes,300234063061350,AXIB,EC,ICE-PPR(RDAF-USIABP),North
2017-09-16T19:00:28Z,1505588429,2017,19,0,259.792,259.792,85.8144,-148.1846,1002.4,-1.6,-3.0,yes,yes,yes,300234063061350,AXIB,EC,ICE-PPR(RDAF-USIABP),North
2017-09-16T19:59:31Z,1505591971,2017,20,0,259.833,259.833,85.8096,-148.1736,1002.3,-1.6,-3.1,yes,yes,yes,300234063061350,AXIB,EC,ICE-PPR(RDAF-USIABP),North
2017-09-16T21:00:00Z,1505595600,2017,21,0,259.875,259.875,85.8052,-148.1568,1002.3,-1.6,-3.3,yes,yes,yes,300234063061350,AXIB,EC,ICE-PPR(RDAF-USIABP),North
2017-09-16T22:00:28Z,1505599229,2017,22,0,259.917,259.917,85.8016,-148.1324,1002.2,-1.6,-3.2,yes,yes,yes,300234063061350,AXIB,EC,ICE-PPR(RDAF-USIABP),North
2017-09-16T22:59:31Z,1505602771,2017,23,0,259.958,259.958,85.7976,-148.0944,1002.0,-1.6,-3.3,yes,yes,yes,300234063061350,AXIB,EC,ICE-PPR(RDAF-USIABP),North
2017-09-17T00:00:00Z,1505606400,2017,0,0,260.0,260.0,85.7934,-148.0446,1001.9,-1.6,-3.6,yes,yes,yes,300234063061350,AXIB,EC,ICE-PPR(RDAF-USIABP),North
2017-09-17T01:00:28Z,1505610029,2017,1,0,260.042,260.042,85.789,-147.992,1001.6,-1.6,-4.2,yes,yes,yes,300234063061350,AXIB,EC,ICE-PPR(RDAF-USIABP),North
2017-09-17T01:59:31Z,1505613571,2017,2,0,260.083,260.083,85.7844,-147.9386,1001.5,-1.6,-4.9,yes,yes,yes,300234063061350,AXIB,EC,ICE-PPR(RDAF-USIABP),North
2017-09-17T03:00:00Z,1505617200,2017,3,0,260.125,260.125,85.7794,-147.8908,1001.4,-1.6,-5.1,yes,yes,yes,300234063061350,AXIB,EC,ICE-PPR(RDAF-USIABP),North
2017-09-17T04:00:28Z,1505620829,2017,4,0,260.167,260.167,85.7742,-147.8512,1001.4,-1.6,-5.9,yes,yes,yes,300234063061350,AXIB,EC,ICE-PPR(RDAF-USIABP),North
2017-09-17T04:59:31Z,1505624371,2017,5,0,260.208,260.208,85.7694,-147.8212,1001.3,-1.6,-6.4,yes,yes,yes,300234063061350,AXIB,EC,ICE-PPR(RDAF-USIABP),North
2017-09-17T06:00:00Z,1505628000,2017,6,0,260.25,260.25,85.7648,-147.7942,1001.2,-1.6,-6.1,yes,yes,yes,300234063061350,AXIB,EC,ICE-PPR(RDAF-USIABP),North
2017-09-17T07:00:28Z,1505631629,2017,7,0,260.292,260.292,85.761,-147.7712,1001.1,-1.6,-6.1,yes,yes,yes,300234063061350,AXIB,EC,ICE-PPR(RDAF-USIABP),North
2017-09-17T07:59:31Z,1505635171,2017,8,0,260.333,260.333,85.7576,-147.7456,1001.0,-1.6,-5.6,yes,yes,yes,300234063061350,AXIB,EC,ICE-PPR(RDAF-USIABP),North
2017-09-17T09:00:00Z,1505638800,2017,9,0,260.375,260.375,85.7548,-147.714,1001.0,-1.6,-6.3,yes,yes,yes,300234063061350,AXIB,EC,ICE-PPR(RDAF-USIABP),North
2017-09-17T10:00:28Z,1505642429,2017,10,0,260.417,260.417,85.7524,-147.676,1000.9,-1.6,-5.5,yes,yes,yes,300234063061350,AXIB,EC,ICE-PPR(RDAF-USIABP),North
2017-09-17T10:59:31Z,1505645971,2017,11,0,260.458,260.458,85.75,-147.6286,1000.8,-1.6,-5.3,yes,yes,yes,300234063061350,AXIB,EC,ICE-PPR(RDAF-USIABP),North
2017-09-17T12:00:00Z,1505649600,2017,12,0,260.5,260.5,85.7472,-147.574,1000.7,-1.6,-4.8,yes,yes,yes,300234063061350,AXIB,EC,ICE-PPR(RDAF-USIABP),North
2017-09-17T13:00:28Z,1505653229,2017,13,0,260.542,260.542,85.744,-147.5176,1000.6,-1.6,-5.2,yes,yes,yes,300234063061350,AXIB,EC,ICE-PPR(RDAF-USIABP),North
2017-09-17T13:59:31Z,1505656771,2017,14,0,260.583,260.583,85.7402,-147.462,1000.5,-1.6,-5.3,yes,yes,yes,300234063061350,AXIB,EC,ICE-PPR(RDAF-USIABP),North
2017-09-17T15:00:00Z,1505660400,2017,15,0,260.625,260.625,85.736,-147.4102,1000.6,-1.6,-5.8,yes,yes,yes,300234063061350,AXIB,EC,ICE-PPR(RDAF-USIABP),North
2017-09-17T16:00:28Z,1505664029,2017,16,0,260.667,260.667,85.7316,-147.368,1000.5,-1.6,-5.5,yes,yes,yes,300234063061350,AXIB,EC,ICE-PPR(RDAF-USIABP),North
2017-09-17T16:59:31Z,1505667571,2017,17,0,260.708,260.708,85.7278,-147.3334,1000.6,-1.6,-5.5,yes,yes,yes,300234063061350,AXIB,EC,ICE-PPR(RDAF-USIABP),North
2017-09-17T18:00:00Z,1505671200,2017,18,0,260.75,260.75,85.7244,-147.304,1000.6,-1.6,-5.2,yes,yes,yes,300234063061350,AXIB,EC,ICE-PPR(RDAF-USIABP),North
2017-09-17T19:00:28Z,1505674829,2017,19,0,260.792,260.792,85.7218,-147.2756,1000.7,-1.6,-5.2,yes,yes,yes,300234063061350,AXIB,EC,ICE-PPR(RDAF-USIABP),North
2017-09-17T19:59:31Z,1505678371,2017,20,0,260.833,260.833,85.72,-147.2474,1000.9,-1.6,-5.6,yes,yes,yes,300234063061350,AXIB,EC,ICE-PPR(RDAF-USIABP),North
2017-09-17T21:00:00Z,1505682000,2017,21,0,260.875,260.875,85.719,-147.2154,1001.1,-1.6,-5.6,yes,yes,yes,300234063061350,AXIB,EC,ICE-PPR(RDAF-USIABP),North
2017-09-17T22:00:28Z,1505685629,2017,22,0,260.917,260.917,85.7186,-147.1776,1001.3,-1.6,-6.9,yes,yes,yes,300234063061350,AXIB,EC,ICE-PPR(RDAF-USIABP),North
2017-09-17T22:59:31Z,1505689171,2017,23,0,260.958,260.958,85.7184,-147.1306,1001.4,-1.6,-6.7,yes,yes,yes,300234063061350,AXIB,EC,ICE-PPR(RDAF-USIABP),North
2017-09-18T00:00:00Z,1505692800,2017,0,0,261.0,261.0,85.718,-147.079,1001.7,-1.6,-6.5,yes,yes,yes,300234063061350,AXIB,EC,ICE-PPR(RDAF-USIABP),North
2017-09-18T01:00:28Z,1505696429,2017,1,0,261.042,261.042,85.7172,-147.0236,1001.9,-1.6,-6.8,yes,yes,yes,300234063061350,AXIB,EC,ICE-PPR(RDAF-USIABP),North
2017-09-18T01:59:31Z,1505699971,2017,2,0,261.083,261.083,85.716,-146.9684,1002.0,-1.6,-6.9,yes,yes,yes,300234063061350,AXIB,EC,ICE-PPR(RDAF-USIABP),North
2017-09-18T03:00:00Z,1505703600,2017,3,0,261.125,261.125,85.7142,-146.9176,1002.2,-1.6,-8.3,yes,yes,yes,300234063061350,AXIB,EC,ICE-PPR(RDAF-USIABP),North
2017-09-18T04:00:28Z,1505707229,2017,4,0,261.167,261.167,85.7126,-146.8708,1002.4,-1.6,-8.0,yes,yes,yes,300234063061350,AXIB,EC,ICE-PPR(RDAF-USIABP),North
2017-09-18T04:59:31Z,1505710771,2017,5,0,261.208,261.208,85.7112,-146.83,1002.6,-1.6,-7.1,yes,yes,yes,300234063061350,AXIB,EC,ICE-PPR(RDAF-USIABP),North
2017-09-18T06:00:00Z,1505714400,2017,6,0,261.25,261.25,85.7102,-146.7954,1002.9,-1.6,-7.3,yes,yes,yes,300234063061350,AXIB,EC,ICE-PPR(RDAF-USIABP),North
2017-09-18T07:00:28Z,1505718029,2017,7,0,261.292,261.292,85.7098,-146.764,1003.3,-1.6,-6.6,yes,yes,yes,300234063061350,AXIB,EC,ICE-PPR(RDAF-USIABP),North
2017-09-18T07:59:31Z,1505721571,2017,8,0,261.333,261.333,85.7104,-146.7328,1003.6,-1.6,-6.6,yes,yes,yes,300234063061350,AXIB,EC,ICE-PPR(RDAF-USIABP),North
2017-09-18T09:00:00Z,1505725200,2017,9,0,261.375,261.375,85.7114,-146.6978,1004.0,-1.6,-6.6,yes,yes,yes,300234063061350,AXIB,EC,ICE-PPR(RDAF-USIABP),North
2017-09-18T10:00:28Z,1505728829,2017,10,0,261.417,261.417,85.7128,-146.656,1004.3,-1.6,-7.6,yes,yes,yes,300234063061350,AXIB,EC,ICE-PPR(RDAF-USIABP),North
2017-09-18T10:59:31Z,1505732371,2017,11,0,261.458,261.458,85.7144,-146.6076,1004.5,-1.6,-9.1,yes,yes,yes,300234063061350,AXIB,EC,ICE-PPR(RDAF-USIABP),North
2017-09-18T12:00:00Z,1505736000,2017,12,0,261.5,261.5,85.7154,-146.5512,1004.8,-1.6,-9.6,yes,yes,yes,300234063061350,AXIB,EC,ICE-PPR(RDAF-USIABP),North
2017-09-18T13:00:28Z,1505739629,2017,13,0,261.542,261.542,85.716,-146.4886,1005.1,-1.6,-7.9,yes,yes,yes,300234063061350,AXIB,EC,ICE-PPR(RDAF-USIABP),North
2017-09-18T13:59:31Z,1505743171,2017,14,0,261.583,261.583,85.7158,-146.4226,1005.3,-1.6,-7.1,yes,yes,yes,300234063061350,AXIB,EC,ICE-PPR(RDAF-USIABP),North
2017-09-18T15:00:00Z,1505746800,2017,15,0,261.625,261.625,85.715,-146.3558,1005.6,-1.6,-6.5,yes,yes,yes,300234063061350,AXIB,EC,ICE-PPR(RDAF-USIABP),North
2017-09-18T16:00:28Z,1505750429,2017,16,0,261.667,261.667,85.714,-146.293,1005.7,-1.6,-6.6,yes,yes,yes,300234063061350,AXIB,EC,ICE-PPR(RDAF-USIABP),North
2017-09-18T16:59:31Z,1505753971,2017,17,0,261.708,261.708,85.7132,-146.2332,1006.1,-1.6,-6.8,yes,yes,yes,300234063061350,AXIB,EC,ICE-PPR(RDAF-USIABP),North
2017-09-18T18:00:00Z,1505757600,2017,18,0,261.75,261.75,85.713,-146.1752,1006.2,-1.6,-6.4,yes,yes,yes,300234063061350,AXIB,EC,ICE-PPR(RDAF-USIABP),North
2017-09-18T19:00:28Z,1505761229,2017,19,0,261.792,261.792,85.7138,-146.1202,1006.6,-1.6,-6.1,yes,yes,yes,300234063061350,AXIB,EC,ICE-PPR(RDAF-USIABP),North
2017-09-18T19:59:31Z,1505764771,2017,20,0,261.833,261.833,85.7156,-146.061,1006.9,-1.6,-6.1,yes,yes,yes,300234063061350,AXIB,EC,ICE-PPR(RDAF-USIABP),North
2017-09-18T21:00:00Z,1505768400,2017,21,0,261.875,261.875,85.7182,-145.9986,1007.2,-1.6,-6.2,yes,yes,yes,300234063061350,AXIB,EC,ICE-PPR(RDAF-USIABP),North
2017-09-18T22:00:28Z,1505772029,2017,22,0,261.917,261.917,85.7214,-145.9274,1007.5,-1.6,-6.2,yes,yes,yes,300234063061350,AXIB,EC,ICE-PPR(RDAF-USIABP),North
2017-09-18T22:59:31Z,1505775571,2017,23,0,261.958,261.958,85.7248,-145.8424,1007.9,-1.6,-6.2,yes,yes,yes,300234063061350,AXIB,EC,ICE-PPR(RDAF-USIABP),North
2017-09-19T00:00:00Z,1505779200,2017,0,0,262.0,262.0,85.7282,-145.7516,1008.1,-1.6,-6.3,yes,yes,yes,300234063061350,AXIB,EC,ICE-PPR(RDAF-USIABP),North
2017-09-19T01:00:28Z,1505782829,2017,1,0,262.042,262.042,85.7312,-145.6616,1008.0,-1.6,-6.5,yes,yes,yes,300234063061350,AXIB,EC,ICE-PPR(RDAF-USIABP),North
2017-09-19T01:59:31Z,1505786371,2017,2,0,262.083,262.083,85.734,-145.5784,1008.1,-1.6,-6.5,yes,yes,yes,300234063061350,AXIB,EC,ICE-PPR(RDAF-USIABP),North
2017-09-19T03:00:00Z,1505790000,2017,3,0,262.125,262.125,85.7366,-145.5026,1008.3,-1.6,-6.7,yes,yes,yes,300234063061350,AXIB,EC,ICE-PPR(RDAF-USIABP),North
2017-09-19T04:00:28Z,1505793629,2017,4,0,262.167,262.167,85.7392,-145.438,1008.6,-1.6,-6.8,yes,yes,yes,300234063061350,AXIB,EC,ICE-PPR(RDAF-USIABP),North
2017-09-19T04:59:31Z,1505797171,2017,5,0,262.208,262.208,85.7426,-145.3884,1008.6,-1.6,-6.5,yes,yes,yes,300234063061350,AXIB,EC,ICE-PPR(RDAF-USIABP),North
2017-09-19T06:00:00Z,1505800800,2017,6,0,262.25,262.25,85.7476,-145.3514,1008.4,-1.6,-6.6,yes,yes,yes,300234063061350,AXIB,EC,ICE-PPR(RDAF-USIABP),North
2017-09-19T07:00:28Z,1505804429,2017,7,0,262.292,262.292,85.7536,-145.3188,1008.1,-1.6,-6.1,yes,yes,yes,300234063061350,AXIB,EC,ICE-PPR(RDAF-USIABP),North
2017-09-19T07:59:31Z,1505807971,2017,8,0,262.333,262.333,85.7608,-145.2842,1008.1,-1.6,-5.7,yes,yes,yes,300234063061350,AXIB,EC,ICE-PPR(RDAF-USIABP),North
2017-09-19T09:00:00Z,1505811600,2017,9,0,262.375,262.375,85.7686,-145.2456,1008.0,-1.6,-5.9,yes,yes,yes,300234063061350,AXIB,EC,ICE-PPR(RDAF-USIABP),North
2017-09-19T10:00:28Z,1505815229,2017,10,0,262.417,262.417,85.7768,-145.1994,1007.9,-1.6,-6.2,yes,yes,yes,300234063061350,AXIB,EC,ICE-PPR(RDAF-USIABP),North
2017-09-19T10:59:31Z,1505818771,2017,11,0,262.458,262.458,85.7846,-145.1504,1007.7,-1.6,-6.5,yes,yes,yes,300234063061350,AXIB,EC,ICE-PPR(RDAF-USIABP),North
2017-09-19T12:00:00Z,1505822400,2017,12,0,262.5,262.5,85.7918,-145.1056,1007.1,-1.6,-6.8,yes,yes,yes,300234063061350,AXIB,EC,ICE-PPR(RDAF-USIABP),North
2017-09-19T13:00:28Z,1505826029,2017,13,0,262.542,262.542,85.7986,-145.0724,1006.3,-1.6,-7.1,yes,yes,yes,300234063061350,AXIB,EC,ICE-PPR(RDAF-USIABP),North
2017-09-19T13:59:31Z,1505829571,2017,14,0,262.583,262.583,85.8048,-145.057,1005.7,-1.6,-7.2,yes,yes,yes,300234063061350,AXIB,EC,ICE-PPR(RDAF-USIABP),North
2017-09-19T15:00:00Z,1505833200,2017,15,0,262.625,262.625,85.8106,-145.0544,1004.8,-1.6,-7.2,yes,yes,yes,300234063061350,AXIB,EC,ICE-PPR(RDAF-USIABP),North
2017-09-19T16:00:28Z,1505836829,2017,16,0,262.667,262.667,85.8162,-145.067,1003.7,-1.6,-7.6,yes,yes,yes,300234063061350,AXIB,EC,ICE-PPR(RDAF-USIABP),North
2017-09-19T16:59:31Z,1505840371,2017,17,0,262.708,262.708,85.8222,-145.0816,1002.6,-1.6,-7.7,yes,yes,yes,300234063061350,AXIB,EC,ICE-PPR(RDAF-USIABP),North
2017-09-19T18:00:00Z,1505844000,2017,18,0,262.75,262.75,85.828,-145.1032,1001.6,-1.6,-7.9,yes,yes,yes,300234063061350,AXIB,EC,ICE-PPR(RDAF-USIABP),North
2017-09-19T19:00:28Z,1505847629,2017,19,0,262.792,262.792,85.834,-145.1138,1001.3,-1.6,-7.8,yes,yes,yes,300234063061350,AXIB,EC,ICE-PPR(RDAF-USIABP),North
2017-09-19T19:59:31Z,1505851171,2017,20,0,262.833,262.833,85.8402,-145.0994,1001.2,-1.6,-8.3,yes,yes,yes,300234063061350,AXIB,EC,ICE-PPR(RDAF-USIABP),North
2017-09-19T21:00:00Z,1505854800,2017,21,0,262.875,262.875,85.8458,-145.0634,1001.5,-1.6,-9.2,yes,yes,yes,300234063061350,AXIB,EC,ICE-PPR(RDAF-USIABP),North
2017-09-19T22:00:28Z,1505858429,2017,22,0,262.917,262.917,85.851,-145.0132,1001.8,-1.6,-9.2,yes,yes,yes,300234063061350,AXIB,EC,ICE-PPR(RDAF-USIABP),North
2017-09-19T22:59:31Z,1505861971,2017,23,0,262.958,262.958,85.8554,-144.95,1002.2,-1.6,-9.2,yes,yes,yes,300234063061350,AXIB,EC,ICE-PPR(RDAF-USIABP),North
2017-09-20T00:00:00Z,1505865600,2017,0,0,263.0,263.0,85.8592,-144.8878,1002.4,-1.6,-8.6,yes,yes,yes,300234063061350,AXIB,EC,ICE-PPR(RDAF-USIABP),North
2017-09-20T01:00:28Z,1505869229,2017,1,0,263.042,263.042,85.862,-144.8302,1002.5,-1.6,-8.2,yes,yes,yes,300234063061350,AXIB,EC,ICE-PPR(RDAF-USIABP),North
2017-09-20T01:59:31Z,1505872771,2017,2,0,263.083,263.083,85.8648,-144.7822,1002.8,-1.6,-7.6,yes,yes,yes,300234063061350,AXIB,EC,ICE-PPR(RDAF-USIABP),North
2017-09-20T03:00:00Z,1505876400,2017,3,0,263.125,263.125,85.8678,-144.745,1002.9,-1.6,-7.1,yes,yes,yes,300234063061350,AXIB,EC,ICE-PPR(RDAF-USIABP),North
2017-09-20T04:00:28Z,1505880029,2017,4,0,263.167,263.167,85.8712,-144.719,1003.0,-1.6,-6.5,yes,yes,yes,300234063061350,AXIB,EC,ICE-PPR(RDAF-USIABP),North
2017-09-20T04:59:31Z,1505883571,2017,5,0,263.208,263.208,85.8758,-144.7038,1003.1,-1.6,-6.1,yes,yes,yes,300234063061350,AXIB,EC,ICE-PPR(RDAF-USIABP),North
2017-09-20T06:00:00Z,1505887200,2017,6,0,263.25,263.25,85.8818,-144.6926,1003.0,-1.6,-6.4,yes,yes,yes,300234063061350,AXIB,EC,ICE-PPR(RDAF-USIABP),North
2017-09-20T07:00:28Z,1505890829,2017,7,0,263.292,263.292,85.8888,-144.6788,1002.7,-1.6,-6.2,yes,yes,yes,300234063061350,AXIB,EC,ICE-PPR(RDAF-USIABP),North
2017-09-20T07:59:31Z,1505894371,2017,8,0,263.333,263.333,85.8972,-144.6588,1002.4,-1.6,-6.1,yes,yes,yes,300234063061350,AXIB,EC,ICE-PPR(RDAF-USIABP),North
2017-09-20T09:00:00Z,1505898000,2017,9,0,263.375,263.375,85.9066,-144.6402,1002.1,-1.6,-5.8,yes,yes,yes,300234063061350,AXIB,EC,ICE-PPR(RDAF-USIABP),North
2017-09-20T10:00:28Z,1505901629,2017,10,0,263.417,263.417,85.9166,-144.603,1002.0,-1.6,-5.7,yes,yes,yes,300234063061350,AXIB,EC,ICE-PPR(RDAF-USIABP),North
2017-09-20T10:59:31Z,1505905171,2017,11,0,263.458,263.458,85.9268,-144.5428,1002.2,-1.6,-5.1,yes,yes,yes,300234063061350,AXIB,EC,ICE-PPR(RDAF-USIABP),North
2017-09-20T12:00:00Z,1505908800,2017,12,0,263.5,263.5,85.9356,-144.4636,1002.5,-1.6,-4.4,yes,yes,yes,300234063061350,AXIB,EC,ICE-PPR(RDAF-USIABP),North
2017-09-20T13:00:28Z,1505912429,2017,13,0,263.542,263.542,85.942,-144.3678,1003.5,-1.6,-4.8,yes,yes,yes,300234063061350,AXIB,EC,ICE-PPR(RDAF-USIABP),North
2017-09-20T13:59:31Z,1505915971,2017,14,0,263.583,263.583,85.945,-144.2782,1004.3,-1.6,-7.0,yes,yes,yes,300234063061350,AXIB,EC,ICE-PPR(RDAF-USIABP),North
2017-09-20T15:00:00Z,1505919600,2017,15,0,263.625,263.625,85.9462,-144.2124,1004.9,-1.6,-7.2,yes,yes,yes,300234063061350,AXIB,EC,ICE-PPR(RDAF-USIABP),North
2017-09-20T16:00:28Z,1505923229,2017,16,0,263.667,263.667,85.9474,-144.1796,1005.3,-1.6,-7.0,yes,yes,yes,300234063061350,AXIB,EC,ICE-PPR(RDAF-USIABP),North
2017-09-20T16:59:31Z,1505926771,2017,17,0,263.708,263.708,85.9496,-144.1756,1005.7,-1.6,-6.6,yes,yes,yes,300234063061350,AXIB,EC,ICE-PPR(RDAF-USIABP),North
2017-09-20T18:00:00Z,1505930400,2017,18,0,263.75,263.75,85.955,-144.177,1006.2,-1.6,-5.5,yes,yes,yes,300234063061350,AXIB,EC,ICE-PPR(RDAF-USIABP),North
2017-09-20T19:00:28Z,1505934029,2017,19,0,263.792,263.792,85.9632,-144.1552,1006.5,-1.6,-4.8,yes,yes,yes,300234063061350,AXIB,EC,ICE-PPR(RDAF-USIABP),North
2017-09-20T19:59:31Z,1505937571,2017,20,0,263.833,263.833,85.9724,-144.1112,1006.4,-1.6,-4.3,yes,yes,yes,300234063061350,AXIB,EC,ICE-PPR(RDAF-USIABP),North
2017-09-20T21:00:00Z,1505941200,2017,21,0,263.875,263.875,85.9818,-144.056,1006.6,-1.6,-3.8,yes,yes,yes,300234063061350,AXIB,EC,ICE-PPR(RDAF-USIABP),North
2017-09-20T22:00:28Z,1505944829,2017,22,0,263.917,263.917,85.9912,-143.9928,1006.7,-1.6,-3.4,yes,yes,yes,300234063061350,AXIB,EC,ICE-PPR(RDAF-USIABP),North
2017-09-20T22:59:31Z,1505948371,2017,23,0,263.958,263.958,86.0,-143.9278,1006.6,-1.6,-3.5,yes,yes,yes,300234063061350,AXIB,EC,ICE-PPR(RDAF-USIABP),North
2017-09-21T00:00:00Z,1505952000,2017,0,0,264.0,264.0,86.0076,-143.8694,1006.3,-1.6,-3.3,yes,yes,yes,300234063061350,AXIB,EC,ICE-PPR(RDAF-USIABP),North
2017-09-21T01:00:28Z,1505955629,2017,1,0,264.042,264.042,86.0144,-143.8138,1006.1,-1.6,-3.2,yes,yes,yes,300234063061350,AXIB,EC,ICE-PPR(RDAF-USIABP),North
2017-09-21T01:59:31Z,1505959171,2017,2,0,264.083,264.083,86.0204,-143.7718,1006.1,-1.6,-3.4,yes,yes,yes,300234063061350,AXIB,EC,ICE-PPR(RDAF-USIABP),North